Location: Quebec
(46.8000°N, 71.2500°W)
Time: 05:17:05
(UTC-05:00)

Tiangong 2 - Pass Details

Date: 15 October 2017
Orbit: 386 x 390 km, 42.8° (Epoch: 11 December)

Event Time Altitude Azimuth Distance (km) Brightness Sun altitude
Exits shadow 05:38:45 29° 227° (SW) 741 2.1 -15.2°
Maximum altitude 05:39:45 38° 185° (S) 609 1.9 -15.0°
Drops below altitude 10° 05:42:46 10° 115° (ESE) 1,422 4.9 -14.5°
Sets 05:44:55 0° 107° (ESE) 2,278 6.4 -14.1°
